Location: Miles
(41.4492°N, 81.6087°W)
Time: 08:02:00
(UTC+00:00)

Tiros 1 - Visible Passes

Search period start: 19 September 2024 00:00
Search period end: 29 September 2024 00:00
Orbit: 623 x 655 km, 48.4° (Epoch: 19 September)

Date Brightness Start Highest point End Pass type
(mag) Time Alt. Az. Time Alt. Az. Time Alt. Az.
19 Sep 7.4 00:14:28 10° WNW 00:19:01 55° NNE 00:22:47 15° E visible
19 Sep 8.2 01:56:38 10° WNW 02:00:17 38° WSW 02:00:17 38° WSW visible
20 Sep 7.1 00:37:56 10° WNW 00:42:34 90° WSW 00:45:17 25° ESE visible
20 Sep 9.4 02:20:46 10° W 02:22:47 18° WSW 02:22:47 18° WSW visible
21 Sep 7.8 01:01:31 10° WNW 01:05:57 47° SW 01:07:52 29° SSE visible
22 Sep 8.9 01:25:29 10° W 01:29:08 23° SW 01:30:32 20° SSW visible
23 Sep 7.7 00:06:23 10° WNW 00:10:54 55° SW 00:15:25 10° SE visible
23 Sep 9.8 01:51:29 10° WSW 01:52:09 10° SW 01:52:49 10° SW visible
24 Sep 8.9 00:30:14 10° W 00:34:07 27° SW 00:38:01 10° SSE visible
25 Sep 9.8 00:55:12 10° WSW 00:57:09 13° SW 00:59:07 10° SSW visible
26 Sep 9.8 23:59:31 10° W 00:02:08 15° SW 00:04:45 10° SSW visible
